INTELSAT 17 (IS-17)

Last updated on Sun Nov 16 2025 00:03:41 GMT+0000 (Coordinated Universal Time)

1 37238U 10065B 25319.46518192 .00000005 00000+0 00000+0 0 9994 2 37238 0.0065 272.2254 0002410 326.6098 49.4534 1.00271330 51104
UTC large
Height (km)
Speed (km/s)
/
Latitude / Longitude
Inclination (degrees)
Orbital Period (minutes)
Azimuth
Elevation
Range (km)
Doppler Factor

Next 0 passes for location: London (51.5072 / 0.1276)

Sorry there are no passes over London.